Time,TemperatureF,DewpointF,PressureIn,WindDirection,WindDirectionDegrees,WindSpeedMPH,WindSpeedGustMPH,Humidity,HourlyPrecipIn,Conditions,Clouds,dailyrainin,SoftwareType,DateUTC
2013-03-05 00:12:00,45.7,44.0,30.16,ENE,73,0.0,0.0,93,0.00,,,0.00,weatherlink.com 1.10,2013-03-05 05:12:00,
2013-03-05 00:27:00,45.5,44.0,30.15,ENE,73,0.0,0.0,93,0.00,,,0.00,weatherlink.com 1.10,2013-03-05 05:27:00,
2013-03-05 00:42:00,45.2,43.0,30.15,ENE,73,0.0,0.0,93,0.00,,,0.00,weatherlink.com 1.10,2013-03-05 05:42:00,
2013-03-05 00:57:00,45.8,44.0,30.15,ENE,74,0.0,0.0,94,0.00,,,0.00,weatherlink.com 1.10,2013-03-05 05:57:00,
2013-03-05 01:12:00,46.4,45.0,30.14,ENE,73,0.0,0.0,95,0.00,,,0.00,weatherlink.com 1.10,2013-03-05 06:12:00,
2013-03-05 01:27:00,46.2,45.0,30.14,ENE,73,0.0,0.0,95,0.00,,,0.00,weatherlink.com 1.10,2013-03-05 06:27:00,
2013-03-05 01:42:00,46.3,45.0,30.13,ENE,74,0.0,0.0,95,0.00,,,0.00,weatherlink.com 1.10,2013-03-05 06:42:00,
2013-03-05 01:58:00,46.2,45.0,30.13,ENE,74,0.0,0.0,96,0.00,,,0.00,weatherlink.com 1.10,2013-03-05 06:58:00,
2013-03-05 02:13:00,46.0,45.0,30.12,ENE,74,0.0,0.0,95,0.00,,,0.00,weatherlink.com 1.10,2013-03-05 07:13:00,
2013-03-05 02:28:00,46.0,45.0,30.12,ENE,74,0.0,0.0,95,0.00,,,0.00,weatherlink.com 1.10,2013-03-05 07:28:00,
2013-03-05 02:43:00,45.9,45.0,30.12,ENE,73,0.0,0.0,96,0.00,,,0.00,weatherlink.com 1.10,2013-03-05 07:43:00,
2013-03-05 02:58:00,45.9,45.0,30.11,ENE,74,0.0,0.0,96,0.00,,,0.00,weatherlink.com 1.10,2013-03-05 07:58:00,
2013-03-05 03:13:00,46.1,45.0,30.11,ENE,73,0.0,0.0,96,0.00,,,0.00,weatherlink.com 1.10,2013-03-05 08:13:00,
2013-03-05 03:28:00,45.9,45.0,30.11,ENE,74,0.0,0.0,96,0.00,,,0.00,weatherlink.com 1.10,2013-03-05 08:28:00,
2013-03-05 03:43:00,46.3,45.0,30.11,ENE,74,0.0,0.0,96,0.00,,,0.00,weatherlink.com 1.10,2013-03-05 08:43:00,
2013-03-05 03:58:00,46.1,45.0,30.11,ENE,74,0.0,0.0,96,0.00,,,0.00,weatherlink.com 1.10,2013-03-05 08:58:00,
2013-03-05 04:13:00,45.7,45.0,30.11,ENE,74,0.0,0.0,96,0.00,,,0.00,weatherlink.com 1.10,2013-03-05 09:13:00,
2013-03-05 04:28:00,45.8,45.0,30.11,ENE,74,0.0,0.0,96,0.00,,,0.00,weatherlink.com 1.10,2013-03-05 09:28:00,
2013-03-05 04:43:00,45.8,45.0,30.11,ENE,74,0.0,0.0,97,0.00,,,0.00,weatherlink.com 1.10,2013-03-05 09:43:00,
2013-03-05 04:59:00,45.7,45.0,30.12,ENE,73,0.0,0.0,97,0.00,,,0.00,weatherlink.com 1.10,2013-03-05 09:59:00,
2013-03-05 05:13:00,45.5,45.0,30.13,ENE,73,0.0,0.0,97,0.00,,,0.00,weatherlink.com 1.10,2013-03-05 10:13:00,
2013-03-05 05:28:00,45.6,45.0,30.13,ENE,74,0.0,0.0,97,0.00,,,0.00,weatherlink.com 1.10,2013-03-05 10:28:00,
2013-03-05 05:43:00,45.6,45.0,30.13,ENE,73,0.0,0.0,97,0.00,,,0.00,weatherlink.com 1.10,2013-03-05 10:43:00,
2013-03-05 05:58:00,45.8,45.0,30.14,ENE,74,0.0,0.0,97,0.00,,,0.00,weatherlink.com 1.10,2013-03-05 10:58:00,
2013-03-05 06:13:00,46.0,46.0,30.14,ENE,74,0.0,0.0,98,0.00,,,0.00,weatherlink.com 1.10,2013-03-05 11:13:00,
2013-03-05 06:28:00,45.6,45.0,30.14,ENE,73,0.0,0.0,98,0.00,,,0.00,weatherlink.com 1.10,2013-03-05 11:28:00,
2013-03-05 06:43:00,45.9,45.0,30.14,ENE,74,0.0,0.0,98,0.00,,,0.00,weatherlink.com 1.10,2013-03-05 11:43:00,
2013-03-05 06:58:00,45.9,45.0,30.14,ENE,74,0.0,0.0,97,0.00,,,0.00,weatherlink.com 1.10,2013-03-05 11:58:00,
2013-03-05 07:13:00,47.4,47.0,30.15,ENE,74,0.0,0.0,98,0.00,,,0.00,weatherlink.com 1.10,2013-03-05 12:13:00,
2013-03-05 07:28:00,51.8,52.0,30.15,ENE,74,0.0,0.0,99,0.00,,,0.00,weatherlink.com 1.10,2013-03-05 12:28:00,
2013-03-05 07:43:00,53.5,53.0,30.15,ENE,74,0.0,1.0,98,0.00,,,0.00,weatherlink.com 1.10,2013-03-05 12:43:00,
2013-03-05 07:58:00,54.6,54.0,30.16,ENE,70,0.0,0.0,96,0.00,,,0.00,weatherlink.com 1.10,2013-03-05 12:58:00,
2013-03-05 08:13:00,58.4,57.0,30.16,NE,34,0.0,1.0,96,0.00,,,0.00,weatherlink.com 1.10,2013-03-05 13:13:00,
2013-03-05 08:28:00,60.8,56.0,30.16,WNW,302,0.0,1.0,83,0.00,,,0.00,weatherlink.com 1.10,2013-03-05 13:28:00,
2013-03-05 08:43:00,63.6,56.0,30.16,WNW,303,0.0,1.0,76,0.00,,,0.00,weatherlink.com 1.10,2013-03-05 13:43:00,
2013-03-05 08:58:00,65.7,56.0,30.16,NW,304,0.0,1.0,72,0.00,,,0.00,weatherlink.com 1.10,2013-03-05 13:58:00,
2013-03-05 09:13:00,67.3,57.0,30.16,SSE,162,1.0,1.0,70,0.00,,,0.00,weatherlink.com 1.10,2013-03-05 14:13:00,
2013-03-05 09:28:00,69.4,57.0,30.16,East,94,0.0,2.0,66,0.00,,,0.00,weatherlink.com 1.10,2013-03-05 14:28:00,
2013-03-05 09:43:00,70.1,58.0,30.16,SE,136,1.0,3.0,65,0.00,,,0.00,weatherlink.com 1.10,2013-03-05 14:43:00,
2013-03-05 09:58:00,71.0,58.0,30.15,East,99,3.0,7.0,64,0.00,,,0.00,weatherlink.com 1.10,2013-03-05 14:58:00,
2013-03-05 10:13:00,70.3,58.0,30.14,ESE,113,1.0,6.0,65,0.00,,,0.00,weatherlink.com 1.10,2013-03-05 15:13:00,
2013-03-05 10:28:00,71.6,58.0,30.14,SW,229,2.0,7.0,63,0.00,,,0.00,weatherlink.com 1.10,2013-03-05 15:28:00,
2013-03-05 10:43:00,71.8,57.0,30.14,SE,141,3.0,7.0,61,0.00,,,0.00,weatherlink.com 1.10,2013-03-05 15:43:00,
2013-03-05 10:58:00,73.1,56.0,30.14,ESE,117,1.0,7.0,56,0.00,,,0.00,weatherlink.com 1.10,2013-03-05 15:58:00,
2013-03-05 11:13:00,72.6,57.0,30.13,East,86,6.0,12.0,58,0.00,,,0.00,weatherlink.com 1.10,2013-03-05 16:13:00,
2013-03-05 11:28:00,73.2,56.0,30.14,East,84,1.0,9.0,55,0.00,,,0.00,weatherlink.com 1.10,2013-03-05 16:28:00,
2013-03-05 11:43:00,73.3,57.0,30.13,East,98,5.0,10.0,56,0.00,,,0.00,weatherlink.com 1.10,2013-03-05 16:43:00,
2013-03-05 11:58:00,73.7,55.0,30.13,ESE,111,1.0,8.0,53,0.00,,,0.00,weatherlink.com 1.10,2013-03-05 16:58:00,
2013-03-05 12:13:00,73.8,54.0,30.13,ESE,109,2.0,9.0,51,0.00,,,0.00,weatherlink.com 1.10,2013-03-05 17:13:00,
2013-03-05 12:28:00,73.7,54.0,30.12,SE,141,5.0,9.0,51,0.00,,,0.00,weatherlink.com 1.10,2013-03-05 17:28:00,
2013-03-05 12:43:00,74.0,56.0,30.11,SE,124,2.0,7.0,53,0.00,,,0.00,weatherlink.com 1.10,2013-03-05 17:43:00,
2013-03-05 12:58:00,75.4,56.0,30.11,East,97,1.0,9.0,52,0.00,,,0.00,weatherlink.com 1.10,2013-03-05 17:58:00,
2013-03-05 13:13:00,75.3,56.0,30.10,ESE,110,2.0,6.0,52,0.00,,,0.00,weatherlink.com 1.10,2013-03-05 18:13:00,
2013-03-05 13:28:00,76.0,56.0,30.09,WSW,246,4.0,6.0,50,0.00,,,0.00,weatherlink.com 1.10,2013-03-05 18:28:00,
2013-03-05 13:43:00,76.6,57.0,30.09,ESE,108,1.0,7.0,51,0.00,,,0.00,weatherlink.com 1.10,2013-03-05 18:43:00,
2013-03-05 13:58:00,76.2,58.0,30.08,SW,220,5.0,6.0,53,0.00,,,0.00,weatherlink.com 1.10,2013-03-05 18:58:00,
2013-03-05 14:13:00,76.4,57.0,30.07,ESE,107,5.0,9.0,52,0.00,,,0.00,weatherlink.com 1.10,2013-03-05 19:13:00,
2013-03-05 14:29:00,74.9,58.0,30.07,SE,134,2.0,9.0,55,0.00,,,0.00,weatherlink.com 1.10,2013-03-05 19:29:00,
2013-03-05 14:44:00,74.7,58.0,30.07,ESE,116,3.0,11.0,57,0.00,,,0.00,weatherlink.com 1.10,2013-03-05 19:44:00,
2013-03-05 14:59:00,74.6,58.0,30.07,East,84,11.0,11.0,56,0.00,,,0.00,weatherlink.com 1.10,2013-03-05 19:59:00,
2013-03-05 15:14:00,74.1,58.0,30.07,East,99,5.0,10.0,58,0.00,,,0.00,weatherlink.com 1.10,2013-03-05 20:14:00,
2013-03-05 15:29:00,74.1,58.0,30.07,SSW,200,1.0,9.0,57,0.00,,,0.00,weatherlink.com 1.10,2013-03-05 20:29:00,
2013-03-05 15:44:00,73.4,58.0,30.07,SSW,207,3.0,10.0,58,0.00,,,0.00,weatherlink.com 1.10,2013-03-05 20:44:00,
2013-03-05 15:59:00,74.0,58.0,30.07,SE,145,4.0,11.0,57,0.00,,,0.00,weatherlink.com 1.10,2013-03-05 20:59:00,
2013-03-05 16:14:00,73.5,57.0,30.07,ESE,106,4.0,11.0,57,0.00,,,0.00,weatherlink.com 1.10,2013-03-05 21:14:00,
2013-03-05 16:29:00,72.3,57.0,30.07,SE,131,6.0,10.0,58,0.00,,,0.00,weatherlink.com 1.10,2013-03-05 21:29:00,
2013-03-05 16:44:00,72.9,57.0,30.07,SE,126,5.0,8.0,58,0.00,,,0.00,weatherlink.com 1.10,2013-03-05 21:44:00,
2013-03-05 16:59:00,72.7,57.0,30.07,SE,141,5.0,10.0,59,0.00,,,0.00,weatherlink.com 1.10,2013-03-05 21:59:00,
2013-03-05 17:14:00,73.0,58.0,30.07,ESE,121,2.0,7.0,59,0.00,,,0.00,weatherlink.com 1.10,2013-03-05 22:14:00,
2013-03-05 17:29:00,72.2,57.0,30.07,East,81,4.0,8.0,60,0.00,,,0.00,weatherlink.com 1.10,2013-03-05 22:29:00,
2013-03-05 17:44:00,72.1,57.0,30.07,East,101,2.0,6.0,60,0.00,,,0.00,weatherlink.com 1.10,2013-03-05 22:44:00,
2013-03-05 17:59:00,71.0,57.0,30.07,SE,132,3.0,8.0,62,0.00,,,0.00,weatherlink.com 1.10,2013-03-05 22:59:00,
2013-03-05 18:14:00,69.4,57.0,30.07,SSE,158,3.0,6.0,65,0.00,,,0.00,weatherlink.com 1.10,2013-03-05 23:14:00,
2013-03-05 18:29:00,68.7,56.0,30.07,SSE,148,1.0,8.0,65,0.00,,,0.00,weatherlink.com 1.10,2013-03-05 23:29:00,
2013-03-05 18:44:00,68.0,56.0,30.07,SSE,153,0.0,6.0,66,0.00,,,0.00,weatherlink.com 1.10,2013-03-05 23:44:00,
2013-03-05 18:59:00,67.5,56.0,30.08,ESE,120,0.0,4.0,67,0.00,,,0.00,weatherlink.com 1.10,2013-03-05 23:59:00,
2013-03-05 19:14:00,67.0,56.0,30.08,SSE,156,0.0,3.0,69,0.00,,,0.00,weatherlink.com 1.10,2013-03-06 00:14:00,
2013-03-05 19:29:00,66.2,56.0,30.09,SSW,205,0.0,2.0,70,0.00,,,0.00,weatherlink.com 1.10,2013-03-06 00:29:00,
2013-03-05 19:44:00,65.6,56.0,30.09,SSW,212,0.0,3.0,71,0.00,,,0.00,weatherlink.com 1.10,2013-03-06 00:44:00,
2013-03-05 19:59:00,65.4,56.0,30.09,SSW,210,1.0,2.0,72,0.00,,,0.00,weatherlink.com 1.10,2013-03-06 00:59:00,
2013-03-05 20:14:00,64.9,56.0,30.09,South,172,0.0,3.0,73,0.00,,,0.00,weatherlink.com 1.10,2013-03-06 01:14:00,
2013-03-05 20:29:00,64.4,56.0,30.09,SW,224,2.0,2.0,74,0.00,,,0.00,weatherlink.com 1.10,2013-03-06 01:29:00,
2013-03-05 20:44:00,64.1,56.0,30.10,SSE,165,2.0,2.0,75,0.00,,,0.00,weatherlink.com 1.10,2013-03-06 01:44:00,
2013-03-05 20:59:00,64.1,56.0,30.09,SSE,159,3.0,5.0,75,0.00,,,0.00,weatherlink.com 1.10,2013-03-06 01:59:00,
2013-03-05 21:14:00,64.0,56.0,30.09,SSW,212,2.0,4.0,75,0.00,,,0.00,weatherlink.com 1.10,2013-03-06 02:14:00,
2013-03-05 21:29:00,64.2,57.0,30.09,South,190,4.0,7.0,76,0.00,,,0.00,weatherlink.com 1.10,2013-03-06 02:29:00,
2013-03-05 21:44:00,64.1,56.0,30.09,SSW,204,1.0,2.0,76,0.00,,,0.00,weatherlink.com 1.10,2013-03-06 02:44:00,
2013-03-05 21:59:00,63.9,57.0,30.09,SSW,203,1.0,4.0,77,0.00,,,0.00,weatherlink.com 1.10,2013-03-06 02:59:00,
2013-03-05 22:14:00,63.5,57.0,30.09,South,184,3.0,4.0,78,0.00,,,0.00,weatherlink.com 1.10,2013-03-06 03:14:00,
2013-03-05 22:29:00,63.3,56.0,30.09,SSW,194,0.0,5.0,78,0.00,,,0.00,weatherlink.com 1.10,2013-03-06 03:29:00,
2013-03-05 22:44:00,63.2,57.0,30.08,SSW,197,0.0,3.0,79,0.00,,,0.00,weatherlink.com 1.10,2013-03-06 03:44:00,
2013-03-05 22:59:00,62.8,56.0,30.09,SSW,210,1.0,3.0,79,0.00,,,0.00,weatherlink.com 1.10,2013-03-06 03:59:00,
2013-03-05 23:15:00,62.6,56.0,30.08,SW,215,0.0,3.0,80,0.00,,,0.00,weatherlink.com 1.10,2013-03-06 04:15:00,
2013-03-05 23:30:00,62.3,56.0,30.08,SSW,212,1.0,4.0,81,0.00,,,0.00,weatherlink.com 1.10,2013-03-06 04:30:00,
2013-03-05 23:45:00,62.3,57.0,30.08,West,271,0.0,3.0,82,0.00,,,0.00,weatherlink.com 1.10,2013-03-06 04:45:00,